Starlink 11258

operational
NORAD ID: 62598 Int'l Des: 2025-008 Owner: SPXS Country: US Constellation: starlink
LEOCIRCULAR

Starlink 11258について

説明を読み込み中...

リアルタイム位置

3D地球を読み込み中...

次回通過

高度履歴

Altitude vs Time

uPlot chart will show altitude changes over time

軌道要素

1 62598U 25008M 25354.07341454 .00084986 00000-0 65958-3 0 9993
2 62598 42.9997 245.9751 0001639 260.2299 99.8383 15.70820628 54765
Epoch: Dec 20, 2025 • Age: 23 hours

現在のステータス

高度 357.0 km
速度 7.70 km/s
衛星直下点 -7.60°S, 133.16°E
打ち上げ日 Jan 13, 2025
運用期間 0.9 years
タイプ internet

技術仕様

分類 Payload
質量 960.00 kg
乾燥質量 910.00 kg
総質量 960.00 kg
長さ 0.30 m
直径 4.10 m
スパン 29.00 m
形状 Box + pan
製造者 SPXS
バスタイプ Starlink V2MD
フェーズステータス In Orbit
所有者/国 SPXS/US

大規模コンステレーション

Loading constellations...